Year,Month,Day,Hour,Minute,Value (Times are PST for temperature in C)
2014,07,14,07,23,14.80
2014,07,14,07,24,14.80
2014,07,14,07,25,14.80
2014,07,14,07,26,14.90
2014,07,14,07,27,14.90
2014,07,14,07,28,14.90
2014,07,14,07,29,15.00
2014,07,14,07,30,15.00
2014,07,14,07,31,15.10
2014,07,14,07,32,15.20
2014,07,14,07,33,15.20
2014,07,14,07,34,15.20
2014,07,14,07,35,15.20
2014,07,14,07,36,15.30
2014,07,14,07,37,15.30
2014,07,14,07,38,15.30
2014,07,14,07,39,15.30
2014,07,14,07,40,15.30
2014,07,14,07,41,15.30
2014,07,14,07,42,15.30
2014,07,14,07,43,15.40
2014,07,14,07,44,15.40
2014,07,14,07,45,15.50
2014,07,14,07,46,15.40
2014,07,14,07,47,15.40
2014,07,14,07,48,15.40
2014,07,14,07,49,15.40
2014,07,14,07,50,15.40
2014,07,14,07,51,15.40
2014,07,14,07,52,15.40
2014,07,14,07,53,15.40
2014,07,14,07,54,15.40
2014,07,14,07,55,15.40
2014,07,14,07,56,15.40
2014,07,14,07,57,15.40
2014,07,14,07,58,15.40
2014,07,14,07,59,15.50
2014,07,14,08,00,15.50
2014,07,14,08,01,15.50
2014,07,14,08,02,15.50
2014,07,14,08,03,15.50
2014,07,14,08,04,15.60
2014,07,14,08,05,15.60
2014,07,14,08,06,15.60
2014,07,14,08,07,15.60
2014,07,14,08,08,15.60
2014,07,14,08,09,15.70
2014,07,14,08,10,15.70
2014,07,14,08,11,15.80
2014,07,14,08,12,15.80
2014,07,14,08,13,15.90
2014,07,14,08,14,15.90
2014,07,14,08,15,16.10
2014,07,14,08,16,16.10
2014,07,14,08,17,16.10
2014,07,14,08,18,16.10
2014,07,14,08,19,16.10
2014,07,14,08,20,16.20
2014,07,14,08,21,16.20
2014,07,14,08,22,16.30
2014,07,14,08,23,16.30
2014,07,14,08,24,16.40
2014,07,14,08,25,16.40
2014,07,14,08,26,16.40
2014,07,14,08,27,16.40
2014,07,14,08,28,16.40
2014,07,14,08,29,16.40
2014,07,14,08,30,16.40
2014,07,14,08,31,16.40
2014,07,14,08,32,16.60
2014,07,14,08,33,16.60
2014,07,14,08,34,16.60
2014,07,14,08,35,16.60
2014,07,14,08,36,16.70
2014,07,14,08,37,16.70
2014,07,14,08,38,16.70
2014,07,14,08,39,16.70
2014,07,14,08,40,16.70
2014,07,14,08,41,16.70
2014,07,14,08,42,16.70
2014,07,14,08,43,16.80
2014,07,14,08,44,16.80
2014,07,14,08,45,16.90
2014,07,14,08,46,16.90
2014,07,14,08,47,16.90
2014,07,14,08,48,17.00
2014,07,14,08,49,17.00
2014,07,14,08,50,17.10
2014,07,14,08,51,17.10
2014,07,14,08,52,17.20
2014,07,14,08,53,17.20
2014,07,14,08,54,17.30
2014,07,14,08,55,17.30
2014,07,14,08,56,17.30
2014,07,14,08,57,17.30
2014,07,14,08,58,17.40
2014,07,14,08,59,17.40
2014,07,14,09,00,17.50
2014,07,14,09,01,17.50
2014,07,14,09,02,17.50
2014,07,14,09,03,17.60
2014,07,14,09,04,17.60
2014,07,14,09,05,17.70
2014,07,14,09,06,17.70
2014,07,14,09,07,17.80
2014,07,14,09,08,17.90
2014,07,14,09,09,17.90
2014,07,14,09,10,17.90
2014,07,14,09,11,18.10
2014,07,14,09,12,18.10
2014,07,14,09,13,18.10
2014,07,14,09,14,18.20
2014,07,14,09,15,18.20
2014,07,14,09,16,18.20
2014,07,14,09,17,18.30
2014,07,14,09,18,18.30
2014,07,14,09,19,18.20
2014,07,14,09,20,18.20
2014,07,14,09,21,18.30
2014,07,14,09,22,18.30
2014,07,14,09,23,18.40
2014,07,14,09,24,18.50
2014,07,14,09,25,18.60
2014,07,14,09,26,18.70
2014,07,14,09,27,18.60
2014,07,14,09,28,18.70
2014,07,14,09,29,18.70
2014,07,14,09,30,18.70
2014,07,14,09,31,18.80
2014,07,14,09,32,18.80
2014,07,14,09,33,18.90
2014,07,14,09,34,18.90
2014,07,14,09,35,18.90
2014,07,14,09,36,18.90
2014,07,14,09,37,18.90
2014,07,14,09,38,18.90
2014,07,14,09,39,18.90
2014,07,14,09,40,19.10
2014,07,14,09,41,19.10
2014,07,14,09,42,19.10
2014,07,14,09,43,19.10
2014,07,14,09,44,19.20
2014,07,14,09,45,19.30
2014,07,14,09,46,19.40
2014,07,14,09,47,19.50
2014,07,14,09,48,19.50
2014,07,14,09,49,19.60
2014,07,14,09,50,19.60
2014,07,14,09,51,19.60
2014,07,14,09,52,19.70
2014,07,14,09,53,19.60
2014,07,14,09,54,19.70
2014,07,14,09,55,19.70
2014,07,14,09,56,19.80
2014,07,14,09,57,19.80
2014,07,14,09,58,19.90
2014,07,14,09,59,19.90
2014,07,14,10,00,19.90
2014,07,14,10,01,20.10
2014,07,14,10,02,20.10
2014,07,14,10,03,20.20
2014,07,14,10,04,20.20
2014,07,14,10,05,20.30
2014,07,14,10,06,20.40
2014,07,14,10,07,20.40
2014,07,14,10,08,20.50
2014,07,14,10,09,20.40
2014,07,14,10,10,20.30
2014,07,14,10,11,20.20
2014,07,14,10,12,20.10
2014,07,14,10,13,20.10
2014,07,14,10,14,20.10
2014,07,14,10,15,19.90
2014,07,14,10,16,19.90
2014,07,14,10,17,19.90
2014,07,14,10,18,19.90
2014,07,14,10,19,19.90
2014,07,14,10,20,20.10
2014,07,14,10,21,20.10
2014,07,14,10,22,20.20
2014,07,14,10,23,20.20
2014,07,14,10,24,20.20
2014,07,14,10,25,20.30
2014,07,14,10,26,20.40
2014,07,14,10,27,20.50
2014,07,14,10,28,20.60
2014,07,14,10,29,20.70
2014,07,14,10,30,20.80
2014,07,14,10,31,20.80
2014,07,14,10,32,20.90
2014,07,14,10,33,21.00
2014,07,14,10,34,21.10
2014,07,14,10,35,21.20
2014,07,14,10,36,21.20
2014,07,14,10,37,21.30
2014,07,14,10,38,21.30
2014,07,14,10,39,21.30
2014,07,14,10,40,21.30
2014,07,14,10,41,21.30
2014,07,14,10,42,21.20
2014,07,14,10,43,21.20
2014,07,14,10,44,21.10
2014,07,14,10,45,21.10
2014,07,14,10,47,21.00
2014,07,14,10,48,21.00
2014,07,14,10,49,21.00
2014,07,14,10,50,21.10
2014,07,14,10,51,21.10
2014,07,14,10,52,21.20
2014,07,14,10,53,21.30
2014,07,14,10,54,21.30
2014,07,14,10,55,21.40
2014,07,14,10,56,21.60
2014,07,14,10,57,21.60
2014,07,14,10,58,21.60
2014,07,14,10,59,21.70
2014,07,14,11,00,21.70
2014,07,14,11,01,21.60
2014,07,14,11,02,21.60
2014,07,14,11,03,21.60
2014,07,14,11,04,21.60
2014,07,14,11,05,21.60
2014,07,14,11,06,21.60
2014,07,14,11,07,21.60
2014,07,14,11,08,21.70
2014,07,14,11,09,21.60
2014,07,14,11,10,21.70
2014,07,14,11,11,21.70
2014,07,14,11,12,21.70
2014,07,14,11,13,21.80
2014,07,14,11,14,21.80
2014,07,14,11,15,21.90
2014,07,14,11,16,22.00
2014,07,14,11,17,22.00
2014,07,14,11,18,22.10
2014,07,14,11,19,22.20
2014,07,14,11,20,22.20
2014,07,14,11,21,22.20
2014,07,14,11,22,22.20
2014,07,14,11,23,22.20
2014,07,14,11,24,22.20
2014,07,14,11,25,22.20
2014,07,14,11,26,22.20
2014,07,14,11,27,22.20
2014,07,14,11,28,22.20
2014,07,14,11,29,22.30
2014,07,14,11,30,22.40
2014,07,14,11,31,22.50
2014,07,14,11,32,22.60
2014,07,14,11,33,22.70
2014,07,14,11,34,22.80
2014,07,14,11,35,22.90
2014,07,14,11,36,22.90
2014,07,14,11,37,22.90
2014,07,14,11,38,22.90
2014,07,14,11,39,22.90
2014,07,14,11,40,22.90
2014,07,14,11,41,22.90
2014,07,14,11,42,22.90
2014,07,14,11,43,22.90
2014,07,14,11,44,22.80
2014,07,14,11,45,22.80
2014,07,14,11,46,22.80
2014,07,14,11,47,22.80
2014,07,14,11,48,22.90
2014,07,14,11,49,22.90
2014,07,14,11,50,22.90
2014,07,14,11,51,22.90
2014,07,14,11,52,22.90
2014,07,14,11,53,22.90
2014,07,14,11,54,22.90
2014,07,14,11,55,22.90
2014,07,14,11,56,22.90
2014,07,14,11,57,23.10
2014,07,14,11,58,23.10
2014,07,14,11,59,23.20
2014,07,14,12,00,23.30
2014,07,14,12,01,23.30
2014,07,14,12,02,23.40
2014,07,14,12,03,23.40
2014,07,14,12,04,23.40
2014,07,14,12,05,23.30
2014,07,14,12,06,23.30
2014,07,14,12,07,23.20
2014,07,14,12,08,23.20
2014,07,14,12,09,23.20
2014,07,14,12,10,23.10
2014,07,14,12,11,23.20
2014,07,14,12,12,23.20
2014,07,14,12,13,23.20
2014,07,14,12,14,23.30
2014,07,14,12,15,23.30
2014,07,14,12,16,23.30
2014,07,14,12,17,23.30
2014,07,14,12,18,23.40
2014,07,14,12,19,23.40
2014,07,14,12,20,23.40
2014,07,14,12,21,23.60
2014,07,14,12,22,23.60
2014,07,14,12,23,23.60
2014,07,14,12,24,23.60
2014,07,14,12,25,23.60
2014,07,14,12,26,23.60
2014,07,14,12,27,23.60
2014,07,14,12,28,23.60
2014,07,14,12,29,23.70
2014,07,14,12,30,23.70
2014,07,14,12,31,23.70
2014,07,14,12,32,23.80
2014,07,14,12,33,23.80
2014,07,14,12,34,23.90
2014,07,14,12,35,24.10
2014,07,14,12,36,24.10
2014,07,14,12,37,24.10
2014,07,14,12,38,24.10
2014,07,14,12,39,24.10
2014,07,14,12,40,24.20
2014,07,14,12,41,24.20
2014,07,14,12,42,24.30
2014,07,14,12,43,24.30
2014,07,14,12,44,24.30
2014,07,14,12,45,24.40
2014,07,14,12,46,24.40
2014,07,14,12,47,24.50
2014,07,14,12,48,24.50
2014,07,14,12,49,24.50
2014,07,14,12,50,24.50
2014,07,14,12,51,24.40
2014,07,14,12,52,24.40
2014,07,14,12,53,24.40
2014,07,14,12,54,24.40
2014,07,14,12,55,24.40
2014,07,14,12,56,24.50
2014,07,14,12,57,24.50
2014,07,14,12,58,24.50
2014,07,14,12,59,24.50
2014,07,14,13,00,24.50
2014,07,14,13,01,24.60
2014,07,14,13,02,24.70
2014,07,14,13,03,24.60
2014,07,14,13,04,24.70
2014,07,14,13,05,24.70
2014,07,14,13,06,24.70
2014,07,14,13,07,24.70
2014,07,14,13,08,24.70
2014,07,14,13,09,24.70
2014,07,14,13,10,24.80
2014,07,14,13,11,24.80
2014,07,14,13,12,24.80
2014,07,14,13,13,24.80
2014,07,14,13,14,24.80
2014,07,14,13,15,24.80
2014,07,14,13,16,24.80
2014,07,14,13,17,24.90
2014,07,14,13,18,25.00
2014,07,14,13,19,25.00
2014,07,14,13,20,25.00
2014,07,14,13,21,24.90
2014,07,14,13,22,24.90
2014,07,14,13,23,24.90
2014,07,14,13,24,24.80
2014,07,14,13,25,24.80
2014,07,14,13,26,24.80
2014,07,14,13,27,24.80
2014,07,14,13,28,24.80
2014,07,14,13,29,24.80
2014,07,14,13,30,24.80
2014,07,14,13,31,24.80
2014,07,14,13,32,24.90
2014,07,14,13,33,24.90
2014,07,14,13,34,24.90
2014,07,14,13,35,25.00
2014,07,14,13,36,25.00
2014,07,14,13,37,25.00
2014,07,14,13,38,25.00
2014,07,14,13,39,25.00
2014,07,14,13,40,25.10
2014,07,14,13,41,25.00
2014,07,14,13,42,25.10
2014,07,14,13,43,25.00
2014,07,14,13,44,25.00
2014,07,14,13,45,25.00
2014,07,14,13,46,25.10
2014,07,14,13,47,25.10
2014,07,14,13,48,25.10
2014,07,14,13,49,25.10
2014,07,14,13,50,25.10
2014,07,14,13,51,25.20
2014,07,14,13,52,25.20
2014,07,14,13,53,25.20
2014,07,14,13,54,25.20
2014,07,14,13,55,25.20
2014,07,14,13,56,25.20
2014,07,14,13,57,25.20
2014,07,14,13,58,25.20
2014,07,14,13,59,25.10
2014,07,14,14,00,25.00
2014,07,14,14,01,24.90
2014,07,14,14,02,24.90
2014,07,14,14,03,24.90
2014,07,14,14,04,24.80
2014,07,14,14,05,24.90
2014,07,14,14,06,24.90
2014,07,14,14,07,24.90
2014,07,14,14,08,24.90
2014,07,14,14,09,25.00
2014,07,14,14,10,25.00
2014,07,14,14,11,25.00
2014,07,14,14,12,25.00
2014,07,14,14,13,25.00
2014,07,14,14,14,25.00
2014,07,14,14,15,24.90
2014,07,14,14,16,24.90
2014,07,14,14,17,24.90
2014,07,14,14,18,25.00
2014,07,14,14,19,24.90
2014,07,14,14,20,24.90
2014,07,14,14,21,24.90
2014,07,14,14,22,25.00
2014,07,14,14,23,25.00
2014,07,14,14,24,24.90
2014,07,14,14,25,24.90
2014,07,14,14,26,24.80
2014,07,14,14,27,24.80
2014,07,14,14,28,24.70
2014,07,14,14,29,24.70
2014,07,14,14,30,24.70
2014,07,14,14,31,24.80
2014,07,14,14,32,24.70
2014,07,14,14,33,24.70
2014,07,14,14,34,24.70
2014,07,14,14,35,24.80
2014,07,14,14,36,24.80
2014,07,14,14,37,24.80
2014,07,14,14,38,24.70
2014,07,14,14,39,24.70
2014,07,14,14,40,24.70
2014,07,14,14,41,24.70
2014,07,14,14,42,24.70
2014,07,14,14,43,24.70
2014,07,14,14,44,24.70
2014,07,14,14,45,24.80
2014,07,14,14,46,24.90
2014,07,14,14,47,24.90
2014,07,14,14,48,24.90
2014,07,14,14,49,25.10
2014,07,14,14,50,25.10
2014,07,14,14,51,25.20
2014,07,14,14,52,25.20
2014,07,14,14,53,25.30
2014,07,14,14,54,25.30
2014,07,14,14,55,25.30
2014,07,14,14,56,25.40
2014,07,14,14,57,25.40
2014,07,14,14,58,25.40
2014,07,14,14,59,25.50
2014,07,14,15,00,25.50
2014,07,14,15,01,25.50
2014,07,14,15,02,25.60
2014,07,14,15,03,25.70
2014,07,14,15,04,25.70
2014,07,14,15,05,25.70
2014,07,14,15,06,25.70
2014,07,14,15,07,25.70
2014,07,14,15,08,25.50
2014,07,14,15,09,25.40
2014,07,14,15,10,25.40
2014,07,14,15,11,25.30
2014,07,14,15,12,25.20
2014,07,14,15,13,25.30
2014,07,14,15,14,25.30
2014,07,14,15,15,25.30
2014,07,14,15,16,25.30
2014,07,14,15,17,25.30
2014,07,14,15,18,25.40
2014,07,14,15,19,25.40
2014,07,14,15,20,25.40
2014,07,14,15,21,25.40
2014,07,14,15,22,25.40
2014,07,14,15,23,25.50
2014,07,14,15,24,25.40
2014,07,14,15,25,25.40
2014,07,14,15,26,25.30
2014,07,14,15,27,25.30
2014,07,14,15,28,25.20
2014,07,14,15,29,25.30
2014,07,14,15,30,25.30
2014,07,14,15,31,25.40
2014,07,14,15,32,25.50
2014,07,14,15,33,25.50
2014,07,14,15,34,25.50
2014,07,14,15,35,25.50
2014,07,14,15,36,25.50
2014,07,14,15,37,25.50
2014,07,14,15,38,25.40
2014,07,14,15,39,25.40
2014,07,14,15,40,25.30
2014,07,14,15,41,25.30
2014,07,14,15,42,25.40
2014,07,14,15,43,25.40
2014,07,14,15,44,25.40
2014,07,14,15,45,25.50
2014,07,14,15,46,25.60
2014,07,14,15,47,25.60
2014,07,14,15,48,25.70
2014,07,14,15,49,25.70
2014,07,14,15,50,25.70
2014,07,14,15,51,25.80
2014,07,14,15,52,25.70
2014,07,14,15,53,25.70
2014,07,14,15,54,25.70
2014,07,14,15,55,25.80
2014,07,14,15,56,25.80
2014,07,14,15,57,25.70
2014,07,14,15,58,25.70
2014,07,14,15,59,25.60
2014,07,14,16,00,25.60
2014,07,14,16,01,25.60
2014,07,14,16,02,25.50
2014,07,14,16,03,25.50
2014,07,14,16,04,25.40
2014,07,14,16,05,25.40
2014,07,14,16,06,25.40
2014,07,14,16,07,25.40
2014,07,14,16,08,25.50
2014,07,14,16,09,25.60
2014,07,14,16,10,25.60
2014,07,14,16,11,25.60
2014,07,14,16,12,25.60
2014,07,14,16,13,25.50
2014,07,14,16,14,25.50
2014,07,14,16,15,25.60
2014,07,14,16,16,25.60
2014,07,14,16,17,25.60
2014,07,14,16,18,25.60
2014,07,14,16,19,25.60
2014,07,14,16,20,25.60
2014,07,14,16,21,25.60
2014,07,14,16,22,25.60
2014,07,14,16,23,25.70
2014,07,14,16,24,25.70
2014,07,14,16,25,25.80
2014,07,14,16,26,25.90
2014,07,14,16,27,25.90
2014,07,14,16,28,26.00
2014,07,14,16,29,26.00
2014,07,14,16,30,26.00
2014,07,14,16,31,26.00
2014,07,14,16,32,26.00
2014,07,14,16,33,26.10
2014,07,14,16,34,26.10
2014,07,14,16,35,26.10
2014,07,14,16,36,26.10
2014,07,14,16,37,26.20
2014,07,14,16,38,26.20
2014,07,14,16,39,26.20
2014,07,14,16,40,26.20
2014,07,14,16,41,26.20
2014,07,14,16,42,26.20
2014,07,14,16,43,26.10
2014,07,14,16,44,26.10
2014,07,14,16,45,26.00
2014,07,14,16,46,26.00
2014,07,14,16,47,25.90
2014,07,14,16,48,25.80
2014,07,14,16,49,25.80
2014,07,14,16,50,25.80
2014,07,14,16,51,25.80
2014,07,14,16,52,25.80
2014,07,14,16,53,25.80
2014,07,14,16,54,25.90
2014,07,14,16,55,26.00
2014,07,14,16,56,26.00
2014,07,14,16,57,26.00
2014,07,14,16,58,26.20
2014,07,14,16,59,26.20
2014,07,14,17,00,26.20
2014,07,14,17,01,26.20
2014,07,14,17,02,26.30
2014,07,14,17,03,26.30
2014,07,14,17,04,26.30
2014,07,14,17,05,26.20
2014,07,14,17,06,26.10
2014,07,14,17,07,26.00
2014,07,14,17,08,26.00
2014,07,14,17,09,26.00
2014,07,14,17,10,26.00
2014,07,14,17,11,25.90
2014,07,14,17,12,25.80
2014,07,14,17,13,25.70
2014,07,14,17,14,25.60
2014,07,14,17,15,25.60
2014,07,14,17,16,25.50
2014,07,14,17,17,25.40
2014,07,14,17,18,25.30
2014,07,14,17,19,25.30
2014,07,14,17,20,25.30
2014,07,14,17,21,25.30
2014,07,14,17,22,25.30
2014,07,14,17,23,25.30
2014,07,14,17,24,25.20
2014,07,14,17,25,25.20
2014,07,14,17,26,25.10
2014,07,14,17,27,25.00
2014,07,14,17,28,24.90
2014,07,14,17,29,24.80
2014,07,14,17,30,24.70
2014,07,14,17,31,24.60
2014,07,14,17,32,24.60
2014,07,14,17,33,24.70
2014,07,14,17,34,24.60
2014,07,14,17,35,24.50
2014,07,14,17,36,24.50
2014,07,14,17,37,24.40
2014,07,14,17,38,24.40
2014,07,14,17,39,24.50
2014,07,14,17,40,24.50
2014,07,14,17,41,24.60
2014,07,14,17,42,24.60
2014,07,14,17,43,24.60
2014,07,14,17,44,24.60
2014,07,14,17,45,24.60
2014,07,14,17,46,24.60
2014,07,14,17,47,24.60
2014,07,14,17,48,24.60
2014,07,14,17,49,24.60
2014,07,14,17,50,24.60
2014,07,14,17,51,24.70
2014,07,14,17,52,24.70
2014,07,14,17,53,24.70
2014,07,14,17,54,24.70
2014,07,14,17,55,24.70
2014,07,14,17,56,24.60
2014,07,14,17,57,24.60
2014,07,14,17,58,24.60
2014,07,14,17,59,24.60
2014,07,14,18,00,24.60
2014,07,14,18,01,24.60
2014,07,14,18,02,24.60
2014,07,14,18,03,24.70
2014,07,14,18,04,24.70
2014,07,14,18,05,24.70
2014,07,14,18,06,24.80
2014,07,14,18,07,24.80
2014,07,14,18,08,24.80
2014,07,14,18,09,24.80
2014,07,14,18,10,24.80
2014,07,14,18,11,24.80
2014,07,14,18,12,24.80
2014,07,14,18,13,24.80
2014,07,14,18,14,24.80
2014,07,14,18,15,24.80
2014,07,14,18,16,24.70
2014,07,14,18,17,24.60
2014,07,14,18,18,24.60
2014,07,14,18,19,24.60
2014,07,14,18,20,24.50
2014,07,14,18,21,24.50
2014,07,14,18,22,24.40
2014,07,14,18,23,24.30
2014,07,14,18,24,24.30
2014,07,14,18,25,24.30
2014,07,14,18,26,24.30
2014,07,14,18,27,24.40
2014,07,14,18,28,24.40
2014,07,14,18,29,24.50
2014,07,14,18,30,24.40
2014,07,14,18,31,24.40
2014,07,14,18,32,24.40
2014,07,14,18,33,24.40
2014,07,14,18,34,24.30
2014,07,14,18,35,24.30
2014,07,14,18,36,24.30
2014,07,14,18,37,24.20
2014,07,14,18,38,24.10
2014,07,14,18,39,24.10
2014,07,14,18,40,24.10
2014,07,14,18,41,24.10
2014,07,14,18,42,23.90
2014,07,14,18,43,23.80
2014,07,14,18,44,23.80
2014,07,14,18,45,23.80
2014,07,14,18,46,23.70
2014,07,14,18,47,23.70
2014,07,14,18,48,23.70
2014,07,14,18,49,23.70
2014,07,14,18,50,23.70
2014,07,14,18,51,23.70
2014,07,14,18,52,23.60
2014,07,14,18,53,23.60
2014,07,14,18,54,23.40
2014,07,14,18,55,23.40
2014,07,14,18,56,23.30
2014,07,14,18,57,23.30
2014,07,14,18,58,23.20
2014,07,14,18,59,23.20
2014,07,14,19,00,23.20
2014,07,14,19,01,23.20
2014,07,14,19,02,23.10
2014,07,14,19,03,23.10
2014,07,14,19,04,23.10
2014,07,14,19,05,23.10
2014,07,14,19,06,23.10
2014,07,14,19,07,23.10
2014,07,14,19,08,22.90
2014,07,14,19,09,22.90
2014,07,14,19,10,22.90
2014,07,14,19,11,22.90
2014,07,14,19,12,22.90
2014,07,14,19,13,22.90
2014,07,14,19,14,22.90
2014,07,14,19,15,22.80
2014,07,14,19,16,22.80
2014,07,14,19,17,22.80
2014,07,14,19,18,22.80
2014,07,14,19,19,22.80
2014,07,14,19,20,22.80
2014,07,14,19,21,22.80
2014,07,14,19,22,22.90
2014,07,14,19,23,22.90
2014,07,14,19,24,22.80
2014,07,14,19,25,22.80
2014,07,14,19,26,22.70
2014,07,14,19,27,22.70
2014,07,14,19,28,22.60
2014,07,14,19,29,22.60
2014,07,14,19,30,22.50
2014,07,14,19,31,22.50
2014,07,14,19,32,22.50
2014,07,14,19,33,22.50
2014,07,14,19,34,22.40
2014,07,14,19,35,22.40
2014,07,14,19,36,22.40
2014,07,14,19,37,22.40
2014,07,14,19,38,22.30
2014,07,14,19,39,22.20
2014,07,14,19,40,22.20
2014,07,14,19,41,22.10
2014,07,14,19,42,22.10
2014,07,14,19,43,22.00
2014,07,14,19,44,22.00
2014,07,14,19,45,21.80
2014,07,14,19,46,21.70
2014,07,14,19,47,21.70
2014,07,14,19,48,21.60
2014,07,14,19,49,21.60
2014,07,14,19,50,21.60
2014,07,14,19,51,21.60
2014,07,14,19,52,21.60
2014,07,14,19,53,21.60
2014,07,14,19,54,21.60
2014,07,14,19,55,21.60
2014,07,14,19,56,21.60
2014,07,14,19,57,21.60
2014,07,14,19,58,21.60
2014,07,14,19,59,21.60
2014,07,14,20,00,21.60
2014,07,14,20,01,21.60
2014,07,14,20,02,21.60
2014,07,14,20,03,21.60
2014,07,14,20,04,21.60
2014,07,14,20,05,21.60
2014,07,14,20,06,21.60
2014,07,14,20,07,21.60
2014,07,14,20,08,21.60
2014,07,14,20,09,21.60
2014,07,14,20,10,21.60
2014,07,14,20,11,21.60
2014,07,14,20,12,21.60
2014,07,14,20,13,21.60
